#timestamp,LO_Frequency,Hit,StdDev 
1713661215.0,286047014.0,Y
1713661215.9,286047014.0,P
1713661235.8,286047012.6,N
1713661255.6,286047018.7,P
1713661275.4,286047019.4,Y
1713661295.3,286047008.3,P
1713661315.1,286047010.6,P
1713661335.8,286047009.4,P
1713661355.7,286047011.7,Y
1713661375.5,286047006.8,P
1713661395.4,286047010.7,P
1713661415.2,286047011.9,P
1713661435.0,286047011.4,Y
1713661435.9,286047011.4,P
1713661455.8,286047001.8,N
1713661475.6,286047003.5,N
1713661495.5,286047004.5,N
1713661515.3,286047013.5,Y
1713661535.1,286047009.9,P
1713661555.9,286047014.2,P
1713661575.7,286047019.3,P
1713661595.5,286047022.1,Y
1713661615.4,286047012.5,P
1713661635.2,286047020.3,P
1713661655.1,286047024.8,P
1713661656.0,286047024.8,Y
1713661675.8,286047009.1,P
1713661695.6,286047013.6,P
1713661715.5,286047016.5,P
1713661735.3,286047016.5,Y
1713661755.1,286046999.7,P
1713661775.9,286047005.9,N
1713661795.7,286047002.0,N
1713661815.6,286047006.9,N
1713661835.4,286047006.9,N
1713661855.2,286047007.2,N
1713661875.1,286047001.8,N
1713661876.0,286047001.8,N
1713661895.8,286047002.1,N
1713661915.6,286047002.3,N
1713661935.5,286047000.0,N
1713661985.4,286046995.0,E
1713661995.3,286047001.5,N
1713662015.1,286047008.4,P
1713662035.8,286047007.0,N
1713662055.7,286047008.7,N
1713662075.5,286047008.0,N
1713662095.4,286047012.2,Y
1713662115.2,286047009.2,P
1713662135.0,286047011.2,P
1713662135.9,286047011.2,P
1713662155.8,286047017.2,Y
1713662175.6,286047012.3,P
1713662195.5,286047016.5,P
1713662215.3,286047018.2,P
1713662235.1,286047020.4,Y
1713662255.9,286047008.5,P
1713662275.7,286047011.6,P
1713662295.6,286047018.4,P
1713662315.4,286047017.7,Y
1713662335.2,286047010.7,P
1713662355.1,286047006.4,P
1713662356.0,286047006.4,N
1713662375.8,286047014.8,Y
1713662395.7,286047010.5,P
1713662415.5,286047004.6,P
1713662435.3,286047008.7,P
1713662455.2,286047013.8,Y
1713662475.0,286047005.8,P
1713662475.9,286047005.8,P
1713662495.8,286047008.9,P
1713662515.6,286047006.4,Y
1713662535.4,286047000.1,P
1713662555.3,286047002.4,N
1713662575.1,286047008.7,N
1713662595.8,286047006.8,N
1713662615.7,286047008.3,N
1713662635.5,286047007.8,N
1713662655.4,286047008.9,N
1713662675.2,286047008.2,N
1713662695.0,286047010.6,Y
1713662695.9,286047010.6,P
1713662715.8,286047001.3,N
1713662735.6,286047007.5,N
1713662755.5,286047008.3,N
1713662775.3,286047006.7,N
1713662795.1,286047009.9,Y
1713662815.9,286047007.0,P
1713662835.7,286047007.0,P
1713662855.6,286047009.9,P
1713662875.4,286047008.4,Y
1713662895.2,286047000.4,P
1713662915.1,286047001.5,N
1713662916.0,286047001.5,N
1713662935.8,286047005.7,N
1713662955.7,286047008.4,N
1713662975.5,286047006.3,N
1713662995.3,286047008.7,N
1713663015.2,286047011.5,Y
1713663035.0,286047005.5,P
1713663035.9,286047005.5,P
1713663055.7,286047006.9,P
1713663075.6,286047010.5,Y
1713663095.4,286047002.9,P
1713663115.3,286047003.5,N
1713663135.1,286047003.2,N
1713663136.0,286047003.2,N
1713663155.8,286047004.5,Y
1713663175.7,286047006.0,P
1713663195.5,286047007.4,P
1713663215.4,286047004.8,P
1713663235.2,286047010.2,Y
1713663255.0,286047003.0,P
1713663255.9,286047003.0,N
1713663275.8,286047005.0,P
1713663295.6,286047009.5,Y
1713663315.5,286047010.6,P
1713663335.3,286047010.7,P
1713663355.1,286047012.0,P
1713663375.9,286047015.5,Y
1713663395.7,286047014.0,P
1713663415.5,286047007.9,P
1713663435.4,286047012.4,P
1713663455.2,286047010.9,Y
1713663475.1,286046995.4,P
1713663476.0,286046995.4,N
1713663495.8,286046997.9,N
1713663515.6,286046995.0,N
1713663535.5,286046998.1,N
1713663555.3,286046997.3,N
1713663575.2,286046997.7,N
1713663595.9,286047003.2,N
1713663615.7,286047005.2,N
1713663635.6,286047002.5,N
1713663655.4,286047002.2,N
1713663675.2,286047004.6,N
1713663695.1,286047013.7,N
1713663696.0,286047013.7,N
1713663715.8,286047008.3,N
1713663735.7,286047010.6,N
1713663755.5,286047013.0,N
1713663775.3,286047017.6,N
1713663795.2,286047014.8,N
1713663815.0,286047008.2,N
1713663815.9,286047008.2,N
1713663865.8,286047006.3,E
1713663875.7,286047005.8,N
1713663895.5,286047002.3,P
1713663915.4,286047005.5,P
1713663935.2,286047004.8,Y
1713663955.0,286047001.9,P
1713663955.9,286047001.9,N
1713663975.8,286047003.5,N
1713663995.6,286046999.8,N
1713664015.5,286046998.3,N
1713664035.3,286047001.8,N
1713664055.1,286047003.0,N
1713664075.9,286047003.5,N
1713664095.7,286047001.6,N
1713664115.5,286046997.0,N
1713664135.4,286047004.3,N
1713664155.2,286047003.1,N
1713664175.0,286047003.3,N
1713664176.0,286047003.3,N
1713664195.8,286047004.6,N
1713664215.6,286047000.2,N
1713664235.5,286046998.5,N
1713664255.3,286046995.3,N
1713664275.1,286046992.1,Y
1713664295.9,286046991.4,P
1713664315.7,286046985.8,N
1713664335.6,286046982.2,N
1713664355.4,286046977.4,Y
1713664375.2,286046980.9,P
1713664395.1,286046976.6,P
1713664396.0,286046976.6,P
1713664415.8,286046972.8,Y
1713664435.6,286046994.6,P
1713664455.5,286046992.8,N
1713664475.3,286046990.4,N
1713664495.2,286046987.4,N
1713664515.9,286046990.0,N
1713664535.7,286046984.0,Y
1713664555.6,286046989.1,P
1713664575.4,286046983.7,P
1713664595.2,286046983.7,P
1713664615.1,286046979.7,Y
1713664616.0,286046979.7,P
1713664635.8,286046994.2,N
1713664655.7,286046996.0,N
1713664675.5,286046995.5,N
1713664695.3,286046995.2,N
1713664715.2,286046993.7,N
1713664735.0,286046989.9,N
1713664735.9,286046989.9,N
1713664755.7,286046986.5,N
1713664775.6,286046988.7,N
1713664795.4,286046984.0,Y
